Location: Cicognara
(44.9500°N, 10.4667°E)
Time: 09:03:31
(UTC+00:00)

Cosmos 1461 - Pass Details

Date: 20 June 2021
Orbit: 513 x 649 km, 65.0° (Epoch: 04 August)

Event Time Altitude Azimuth Distance (km) Brightness Sun altitude
Rises 20:05:34 0° 323° (NW) 2,807 8.7 -8.5°
Reaches altitude 10° 20:07:52 10° 321° (NW) 1,880 7.2 -8.8°
Maximum altitude 20:12:03 70° 238° (WSW) 593 3.0 -9.3°
Enters shadow 20:15:41 12° 156° (SSE) 1,650 4.6 -9.8°
